This is the latest recevied weather packets stored in our database for station/object N7ZEF. If no packets are shown the sender has not sent any weather packets the latest 10 day(s).
| Time | Temp. | Humidity | Pressure | Rain* | Wind** | Luminosity | Snow |
|---|---|---|---|---|---|---|---|
| 1777400025 | 8.33° C | 48% | 1019.9 hPa | 0 mm | - | - | - |
| 1777399424 | 7.22° C | 48% | 1020.2 hPa | 0 mm | - | - | - |
| 1777398823 | 6.67° C | 51% | 1020.1 hPa | 0 mm | - | - | - |
| 1777398221 | 6.67° C | 56% | 1020.1 hPa | 0 mm | - | - | - |
| 1777397620 | 6.11° C | 52% | 1020.1 hPa | 0 mm | - | - | - |
| 1777397019 | 6.67° C | 48% | 1020.1 hPa | 0 mm | - | - | - |
| 1777396417 | 7.22° C | 52% | 1020.1 hPa | 0 mm | - | - | - |
| 1777395816 | 6.67° C | 51% | 1020.2 hPa | 0 mm | - | - | - |
| 1777395214 | 6.11° C | 58% | 1020.2 hPa | 0 mm | - | - | - |
| 1777394613 | 6.11° C | 59% | 1020.2 hPa | 0 mm | - | - | - |
| 1777394012 | 5.56° C | 58% | 1020.2 hPa | 0 mm | - | - | - |
| 1777393410 | 5° C | 58% | 1020.1 hPa | 0 mm | - | - | - |
| 1777392809 | 5.56° C | 63% | 1020.1 hPa | 0 mm | - | - | - |
| 1777392208 | 5.56° C | 64% | 1020.1 hPa | 0 mm | - | - | - |
| 1777391606 | 5.56° C | 66% | 1019.9 hPa | 0 mm | - | - | - |
| 1777391005 | 5° C | 69% | 1019.9 hPa | 0 mm | - | - | - |
| 1777390403 | 4.44° C | 74% | 1020.1 hPa | 0 mm | - | - | - |
| 1777389802 | 4.44° C | 75% | 1020.1 hPa | 0 mm | - | - | - |
| 1777389201 | 4.44° C | 75% | 1019.9 hPa | 0 mm | - | - | - |
| 1777388599 | 3.89° C | 78% | 1019.9 hPa | 0 mm | - | - | - |
| 1777387998 | 3.89° C | 79% | 1019.7 hPa | 0 mm | - | - | - |
| 1777387397 | 3.33° C | 81% | 1019.7 hPa | 0 mm | - | - | - |
| 1777386795 | 3.33° C | 83% | 1019.7 hPa | 0 mm | - | - | - |
| 1777386194 | 2.78° C | 83% | 1019.7 hPa | 0 mm | - | - | - |
| 1777385593 | 2.78° C | 84% | 1019.6 hPa | 0 mm | - | - | - |
* Rain latest hour (hover to see other rain measurements)
** Current wind speed in m/s (hover to see current wind gust speed)